FENGYUN 1C DEB, 35174

Orbit data source: Space-Track

FENGYUN 1C DEB, 35174 is space debris in SSO originally from a launch on Mon, 10 May 1999 UTC launched from the Taiyaun Space Center, China (TSC). Fengyun 1C debris stems from the Chinese weather satellite Fengyun-1C, which was intentionally destroyed by a Chinese anti-satellite missile in 2007. This event dramatically increased the amount of space debris, with thousands of trackable fragments posing hazards to satellites and human spaceflight. The Fengyun 1C debris cloud has become a focal point in discussions about space sustainability and the need for international regulations to prevent the creation of new debris.

Loading next visibility...
Identifier
35174, 1999-025DNE
Orbit
SSO
Country
Flag of CNCN / PRC
Related business
Manufacturer
Unknown
Mission
Spacecraft
Bus & Motor
Unknown
Mass
Unknown
Launch date (UTC)
1999-05-10 (27 years ago)
Launch vehicle
Unknown
Launch site
Taiyaun Space Center, China (TSC)
Object type
Payload
Rocket body
Debris
Shape & HBR
Unknown shape, 0.1 m
Radar Cross Section
Small (<0.1 m²)

Expand to show TLE details & history
Last TLE update: 5 days ago

TLE from 5 days ago
0 FENGYUN 1C DEB
1 35174U 99025DNE 26167.77680001  .00025875  00000-0  12231-2 0  9994
2 35174  98.9611 177.2981 0113266 293.1090  65.8231 15.13793564929665
Epoch: 2026-06-16T18:38Z
TLE epoch observation values (Epoch: 2026-06-16T18:38:35.520Z)
Latitude
-0.00009°
Longitude
-7.39386°
Altitude
496.391 km
Speed
7.634 km/s
True Right ascension
11h 49m 11s
True Declination
0° 00' 00"
Sunlit
Object was in daylight at epoch
Visualization orbit readout
Latitude
Unknown
Longitude
Unknown
Altitude
Unknown
Speed
Unknown
Apparent Right ascension
Unknown
Apparent Declination
Unknown
Sunlit
N/A
Visualization observer readout
Local Sidereal Time
22:51:05
Azimuth
Unknown
Elevation
Unknown
Doppler factor
Unknown
Orbital elements
Apogee altitude
599.842 km
Perigee altitude
443.539 km
Semi-major axis
6,899.827 km
Eccentricity
0.01133
Inclination
98.9611°
RAAN
177.2981°
Arg. of periapsis
293.109°
True anomaly
67.014°
Mean anomaly
65.8231°
Eccentric anomaly
66.41787°
Mean motion
3.78692 °/min
Orbital period
95.06 mins
BSTAR
0.0012231
Loading maneuver chart data...
Computing Atmospheric mass density...

Documentation

Showing up to 5 results
|